Regional Weather Roundup
Issued by NWS

Home | Current Version | Previous Version | Text Only | Print | Product List | Glossary Off
Versions: 1 2 3 4 5 6 7 8 9 10 11 12 13 14 15 16 17 18 19 20 21 22 23 24 25 26 27 28 29 30 31 32 33 34 35 36 37 38 39 40 41 42 43 44 45 46 47 48 49 50

000
ASUS43 KLMK 181910
RWRKY
KENTUCKY REGIONAL WEATHER ROUNDUP
NATIONAL WEATHER SERVICE LOUISVILLE KY
200 PM EST SAT FEB 18 2017

NOTE "FAIR" INDICATES FEW OR NO CLOUDS BELOW 12,000 FEET
WITH NO SIGNIFICANT WEATHER AND/OR OBSTRUCTIONS TO VISIBILITY.

KYZ001>023-026-027-061>063-070>075-182000-
WESTERN AND SOUTH CENTRAL KENTUCKY

CITY           SKY/WX    TMP DP  RH WIND       PRES   REMARKS
PADUCAH        CLOUDY    53  50  89 S3        29.87F
HENDERSON      CLOUDY    52  46  82 SW10      29.87S
OWENSBORO      LGT RAIN  53  49  86 SW9       29.88S
HOPKINSVILLE   CLOUDY    52  52 100 SW7       29.89F
BOWLING GREEN  LGT RAIN  53  48  83 S9        29.91F
GLASGOW        RAIN      51  45  80 S6        29.91F
$$

KYZ024-025-028>034-038-045-046-053-182000-
NORTH CENTRAL KENTUCKY

CITY           SKY/WX    TMP DP  RH WIND       PRES   REMARKS
LOUISVILLE/SDF LGT RAIN  57  41  55 S15       29.85F
LOUISVILLE/LOU LGT RAIN  59  41  51 S10       29.86F
FORT KNOX      LGT RAIN  51  45  79 S9        29.85F
$$

KYZ035>037-039>044-047>052-055>060-089>105-182000-
NORTHEAST KENTUCKY

CITY           SKY/WX    TMP DP  RH WIND       PRES   REMARKS
LEXINGTON      LGT RAIN  52  43  71 SW12      29.89F
COVINGTON      CLOUDY    62  40  44 SW13      29.82F
FRANKFORT      LGT RAIN  54  42  64 SW15      29.86F
$$

KYZ054-064>069-076>088-106>120-182000-
SOUTHEAST KENTUCKY

CITY           SKY/WX    TMP DP  RH WIND       PRES   REMARKS
JACKSON        LGT RAIN  53  40  61 SW6       29.92F
LONDON         CLOUDY    49  41  74 S8        29.94F
SOMERSET       DRIZZLE   48  43  81 S5        29.94F
MIDDLESBORO    DRIZZLE   48  46  91 CALM      29.97F
MONTICELLO     LGT RAIN  50  46  86 VRB5      29.94F
$$





USA.gov is the U.S. government's official web portal to all federal, state and local government web resources and services.